#timestamp,LO_Frequency,Hit,StdDev 
1605571215.1,286046997.1,N
1605571216.0,286046997.1,N
1605571235.8,286046996.9,N
1605571255.7,286046998.1,N
1605571275.5,286046998.8,N
1605571295.3,286047000.5,N
1605571315.2,286047000.3,N
1605571335.0,286047000.0,N
1605571335.9,286047000.0,N
1605571355.8,286047000.6,N
1605571375.6,286047002.2,N
1605571395.4,286047002.3,N
1605571415.3,286047001.0,N
1605571435.1,286047000.8,N
1605571455.8,286047002.7,N
1605571475.7,286047002.6,N
1605571495.5,286047002.5,N
1605571515.4,286047002.3,N
1605571535.2,286047001.3,N
1605571555.0,286047003.3,N
1605571555.9,286047003.3,N
1605571575.8,286047005.8,Y
1605571595.6,286047005.4,P
1605571615.5,286047003.7,N
1605571635.3,286047005.4,N
1605571655.1,286047005.3,N
1605571675.9,286047004.8,N
1605571695.7,286047007.6,Y
1605571715.5,286046999.9,P
1605571735.4,286046999.8,N
1605571755.2,286047002.5,N
1605571775.1,286047003.1,N
1605571776.0,286047003.1,N
1605571795.8,286047006.0,Y
1605571815.6,286046999.8,P
1605571835.5,286046999.9,N
1605571855.3,286046998.6,N
1605571875.1,286047002.3,N
1605571895.9,286047000.7,N
1605571915.7,286046999.3,N
1605571935.6,286047001.2,N
1605571955.4,286046999.2,N
1605571975.2,286047000.7,N
1605571995.1,286047000.9,N
1605571996.0,286047000.9,N
1605572015.8,286046999.8,N
1605572035.7,286047001.4,N
1605572055.5,286047001.7,N
1605572075.3,286046999.8,N
1605572095.2,286047002.4,N
1605572115.0,286047001.5,N
1605572115.9,286047001.5,N
1605572135.7,286047002.0,N
1605572185.6,286047001.5,E
1605572195.5,286047001.4,N
1605572215.4,286047001.8,P
1605572235.2,286047001.9,P
1605572255.0,286047001.4,Y
1605572255.9,286047001.4,P
1605572275.8,286046998.8,P
1605572295.6,286046998.4,N
1605572315.5,286046995.3,Y
1605572335.3,286046999.4,P
1605572355.1,286046995.3,P
1605572375.9,286046996.2,N
1605572395.7,286046998.0,N
1605572415.5,286046997.4,N
1605572435.4,286046999.1,N
1605572455.2,286046999.6,N
1605572475.1,286046999.3,N
1605572476.0,286046999.3,N
1605572495.8,286046998.7,N
1605572515.6,286046998.4,N
1605572535.5,286046997.2,N
1605572555.3,286046999.3,N
1605572575.1,286046999.3,N
1605572595.9,286046998.3,N
1605572615.7,286046997.3,N
1605572635.6,286047001.1,N
1605572655.4,286047001.1,N
1605572675.2,286047000.7,N
1605572695.1,286046998.1,N
1605572696.0,286046998.1,N
1605572715.8,286046998.5,N
1605572735.6,286047001.1,N
1605572755.5,286046998.5,N
1605572775.3,286046998.4,N
1605572795.1,286046998.4,N
1605572815.9,286046996.8,N
1605572835.7,286046998.6,N
1605572855.6,286047000.6,N
1605572875.4,286046996.9,N
1605572895.2,286046999.0,N
1605572915.1,286046997.8,N
1605572916.0,286046997.8,N
1605572935.8,286046996.2,Y
1605572955.7,286046996.8,P
1605572975.5,286047001.1,N
1605572995.3,286046998.1,N
1605573015.2,286047000.8,N
1605573035.9,286046998.9,N
1605573055.7,286047001.1,N
1605573075.6,286047000.7,N
1605573095.4,286047000.7,N
1605573115.2,286047000.7,N
1605573135.1,286046998.2,N
1605573136.0,286046998.2,N
1605573155.8,286046998.8,N
1605573175.7,286046998.6,N
1605573195.5,286046999.2,N
1605573215.3,286046999.5,N
1605573235.2,286046994.9,Y
1605573255.0,286046996.6,P
1605573255.9,286046996.6,N
1605573275.8,286046996.6,N
1605573295.6,286046995.0,Y
1605573315.4,286046999.3,P
1605573335.3,286047000.7,N
1605573355.1,286046998.2,N
1605573375.8,286046998.2,N
1605573395.7,286046998.3,N
1605573415.5,286047000.6,N
1605573435.3,286046999.9,N
1605573455.2,286047000.9,N
1605573475.0,286047001.0,N
1605573475.9,286047001.0,N
1605573495.8,286047000.9,N
1605573515.6,286047000.5,N
1605573535.4,286046998.3,N
1605573555.3,286046998.4,N
1605573575.1,286047000.3,N
1605573595.9,286046999.5,N
1605573615.7,286046998.9,N
1605573635.5,286046999.4,N
1605573655.4,286046996.5,Y
1605573675.2,286046998.8,P
1605573695.0,286046999.5,N
1605573695.9,286046999.5,N
1605573715.8,286046996.9,Y
1605573735.6,286046996.9,P
1605573755.5,286046999.2,N
1605573775.3,286046998.5,N
1605573795.1,286046999.4,N
1605573815.9,286046998.9,N
1605573835.7,286046999.4,N
1605573855.5,286046998.8,N
1605573875.4,286046998.1,N
1605573895.2,286046998.3,N
1605573915.1,286046997.7,Y
1605573916.0,286046997.7,P
1605573935.8,286046997.8,P
1605573955.6,286046996.6,P
1605573975.5,286046997.7,Y
1605573995.3,286046998.8,P
1605574015.1,286046999.4,N
1605574035.9,286047001.1,N
1605574055.7,286047000.7,N
1605574075.6,286046999.4,N
1605574095.4,286047000.8,N
1605574115.2,286046998.4,N
1605574135.1,286046998.1,N
1605574136.0,286046998.1,N
1605574155.8,286046999.0,N
1605574175.6,286046998.3,N
1605574195.5,286046999.1,N
1605574215.3,286047000.9,N
1605574235.2,286046999.7,N
1605574255.9,286047002.5,N
1605574275.7,286047001.6,N
1605574295.6,286047002.1,N
1605574315.4,286046999.8,N
1605574335.2,286047002.1,N
1605574355.1,286047001.9,N
1605574356.0,286047001.9,N
1605574375.8,286047004.3,N
1605574395.7,286047003.6,N
1605574415.5,286047003.9,N
1605574435.3,286047002.0,N
1605574455.2,286047001.8,N
1605574475.0,286046999.8,N
1605574475.9,286046999.8,N
1605574495.7,286047004.4,N
1605574515.6,286047001.9,N
1605574535.4,286046999.9,N
1605574555.3,286047000.8,N
1605574575.1,286047000.2,N
1605574576.0,286047000.2,N
1605574595.8,286046998.5,N
1605574615.7,286047000.2,N
1605574635.5,286046998.2,N
1605574655.3,286046998.9,N
1605574675.2,286046999.3,N
1605574695.0,286046998.2,N
1605574695.9,286046998.2,N
1605574715.8,286046998.3,N
1605574735.6,286046998.2,N
1605574755.4,286046996.5,N
1605574775.3,286046999.1,N
1605574795.1,286046996.5,N
